Location: Newark
(49.3667°N, 21.6167°E)
Time: 02:16:10
(UTC+00:00)

Envisat - Pass Details

Date: 17 December 2019
Orbit: 764 x 766 km, 98.1° (Epoch: 23 January)

Event Time Altitude Azimuth Distance (km) Brightness Sun altitude
Rises 05:17:39 0° 15° (NNE) 3,246 6.2 -10.1°
Reaches altitude 10° 05:19:59 10° 19° (NNE) 2,315 5.4 -9.8°
Maximum altitude 05:25:04 67° 102° (ESE) 829 3.5 -9.0°
Drops below altitude 10° 05:30:07 10° 185° (S) 2,296 5.8 -8.3°
Sets 05:32:25 0° 188° (S) 3,218 6.5 -8.0°
